Regional Weather Roundup
Issued by NWS Newport/Morehead, NC

Current Version | Previous Version | Graphics & Text | Print | Product List | Glossary Off
Versions: 1 2 3 4 5 6 7 8 9 10 11 12 13 14 15 16 17 18 19 20 21 22 23 24 25 26 27 28 29 30 31 32 33 34 35 36 37 38 39 40 41 42 43 44 45 46 47 48 49 50

000
ASUS42 KMHX 230822
RWRMHX
WEATHER ROUNDUP FOR EASTERN NORTH CAROLINA
NATIONAL WEATHER SERVICE NEWPORT/MOREHEAD CITY NC
400 AM EDT WED JUL 23 2014

NOTE: "FAIR" INDICATES FEW OR NO CLOUDS BELOW 12,000 FEET
WITH NO SIGNIFICANT WEATHER AND/OR OBSTRUCTIONS TO VISIBILITY

NCZ015>017-031-032-045>047-102-103-230900-
NORTH COAST

CITY           SKY/WX    TMP DP  RH WIND       PRES   REMARKS
EDENTON        CLOUDY    76  75  95 SW5       30.05S
ELIZABETH CITY MOCLDY    73  72  94 SW5       30.04F
KITTY HAWK     CLOUDY    75  74  97 CALM      30.03S
MANTEO         NOT AVBL

$$

NCZ045>047-081-094-103-104-230900-
CENTRAL COAST

CITY           SKY/WX    TMP DP  RH WIND       PRES   REMARKS
FRISCO         MOCLDY    78  75  90 W8        30.06S
SWANQUARTER      N/A     77 N/A N/A W12       30.00F

$$

NCZ095-097-098-100-101-230900-
SOUTHERN COAST

CITY           SKY/WX    TMP DP  RH WIND       PRES   REMARKS
BEAUFORT       MOCLDY    79  74  84 W8        30.06F
CEDAR ISLAND     N/A     75 N/A N/A SW2       30.09S
JACKSONVILLE   CLEAR     74  73  97 CALM      30.06F
NEWPORT        NOT AVBL
PINEY ISLAND   MOSUNNY   76  76 100 W3        30.06F
WILMINGTON     CLEAR     75  73  93 CALM      30.06F


$$

NCZ011>013-027>030-043-044-078>080-089-090>093-098-230900-
COASTAL PLAIN

CITY           SKY/WX    TMP DP  RH WIND       PRES   REMARKS
AHOSKIE        CLOUDY    70  69  96 CALM      30.05S VSB 3/4
CLINTON        CLOUDY    75  75 100 SW3       30.06S
ELIZABETHTOWN  CLEAR     74  74 100 CALM      30.06F
GOLDSBORO      CLOUDY    75  75 100 SW1       30.04S
GREENVILLE     PTCLDY    73  73 100 CALM      30.06F
HAVELOCK       CLEAR     74  72  93 CALM      30.08S
KENANSVILLE    MOCLDY    74  72  95 CALM      30.07S FOG
KINSTON        CLOUDY    76  75  97 SW3       30.06F
NEW BERN       MOCLDY    76  73  91 S3        30.07F
RICHLANDS      CLOUDY    72  70  94 CALM      30.06F VSB 3/4
ROANOKE RAPIDS NOT AVBL
ROCKY MOUNT    FOG       73  71  93 CALM      30.05S VSB 3/4
WASHINGTON     CLOUDY    75  74  95 W5        30.06S
WHITEVILLE     CLEAR     74  73  95 CALM      30.06S

$$

AMZ130-135-150-152-154-156-158-170-250-252-270-ANZ085-086-088-633-658-670-230900-
MARINE OBSERVATIONS

STATION/POSITION TIME  TEMP    WIND        PRES    WAVE   SWELL
                       AIR SEA DIR/SP/G            HT/PER HT/PER
                 (UTC) (F)     (DEG/KT/KT) (MB)    (FT/S) (FT/S)
CHESAPEAKE LIGHT NOT AVBL
BUOY 44014       0800   77 78  220/ 10/ 12 1017.1    3/ 5   2/ 5
DUCK             0800   76 73  230/  7/ 10 1016.6
2E DUCK          0800                        N/A     2/ 8
OREGON INLET     0800   78 80  220/  8/ 10 1017.4
BUOY 44095       0800      76                N/A     3/ 4
20E OREGON INLET NOT AVBL
HATTERAS CG      0800   78 82  240/  6/ 10 1018.2
DIAMOND BUOY     0800          VRB 16/ 17  1017.6    4/ 5   2/ 7
CAPE LOOKOUT     0800   78     240/  9/ 12 1017.7
BEAUFORT LAB     0800   79 80  260/  4/ 10 1017.6
30 SE NEW RIVER  0800   80 80  230/ 10/ 14 1018.3    4/ 7   3/ 7
5 SE WRIGHTSVILL 0800   76 81  240/  8/ 10   N/A
BUOY 41002       0653   82 82  210/ 12/ 14 1020.4    4/ 6   2/ 6
BUOY 41004       0800   81 82  260/  6/  8 1016.9    3/ 8   3/ 8

$$


USA.gov is the U.S. government's official web portal to all federal, state and local government web resources and services.